| time (UTC) | temp F | wind direction | speed MPH | gust MPH | rain 1hr in | rain 24hr in | rain mn in | humidity % | barometer mb |
| 20260503020042 | 70 | 4 | 2.0 | 4.0 | 0.00 | 0.00 | 0.00 | 44 | 1016.0 |
| 20260503014533 | 72 | 18 | 2.0 | 5.0 | 0.00 | 0.00 | 0.00 | 42 | 1015.9 |
| 20260503013035 | 73 | 22 | 3.0 | 5.0 | 0.00 | 0.00 | 0.00 | 40 | 1015.9 |
| 20260503011535 | 74 | 40 | 4.0 | 9.0 | 0.00 | 0.00 | 0.00 | 36 | 1015.9 |
| 20260503010036 | 75 | 49 | 6.0 | 12.0 | 0.00 | 0.00 | 0.00 | 35 | 1016.0 |
| 20260503004606 | 76 | 58 | 6.0 | 13.0 | 0.00 | 0.00 | 0.00 | 35 | 1016.0 |
| 20260503003151 | 76 | 55 | 7.0 | 13.0 | 0.00 | 0.00 | 0.00 | 35 | 1015.9 |
| 20260503001531 | 76 | 50 | 8.0 | 18.0 | 0.00 | 0.00 | 0.00 | 36 | 1016.0 |
| 20260503000032 | 77 | 48 | 5.0 | 11.0 | 0.00 | 0.00 | 0.00 | 36 | 1016.2 |
| 20260502234534 | 77 | 48 | 6.0 | 11.0 | 0.00 | 0.00 | 0.00 | 35 | 1016.3 |
| 20260502224533 | 77 | 47 | 6.0 | 14.0 | 0.00 | 0.00 | 0.00 | 37 | 1016.8 |
| 20260502223115 | 77 | 50 | 7.0 | 14.0 | 0.00 | 0.00 | 0.00 | 37 | 1017.0 |
| 20260502221529 | 76 | 36 | 7.0 | 13.0 | 0.00 | 0.00 | 0.00 | 38 | 1017.2 |
| 20260502220038 | 76 | 42 | 8.0 | 17.0 | 0.00 | 0.00 | 0.00 | 36 | 1017.3 |
| 20260502214536 | 76 | 55 | 6.0 | 14.0 | 0.00 | 0.00 | 0.00 | 37 | 1017.4 |
| 20260502213030 | 75 | 62 | 8.0 | 15.0 | 0.00 | 0.00 | 0.00 | 39 | 1017.5 |
| 20260502210135 | 75 | 72 | 5.0 | 13.0 | 0.00 | 0.00 | 0.00 | 40 | 1017.8 |
| 20260502203107 | 75 | 53 | 6.0 | 13.0 | 0.00 | 0.00 | 0.00 | 37 | 1017.9 |
| 20260502201642 | 76 | 36 | 6.0 | 13.0 | 0.00 | 0.00 | 0.00 | 35 | 1018.0 |
| 20260502200035 | 77 | 64 | 6.0 | 15.0 | 0.00 | 0.00 | 0.00 | 34 | 1018.2 |
| 20260502193035 | 76 | 120 | 3.0 | 10.0 | 0.00 | 0.00 | 0.00 | 36 | 1018.4 |
| 20260502191535 | 75 | 132 | 2.0 | 8.0 | 0.00 | 0.00 | 0.00 | 37 | 1018.5 |
| 20260502190035 | 74 | 175 | 2.0 | 8.0 | 0.00 | 0.00 | 0.00 | 39 | 1018.8 |
| 20260502184537 | 73 | 237 | 3.0 | 7.0 | 0.00 | 0.00 | 0.00 | 42 | 1018.9 |
| 20260502183037 | 70 | 202 | 3.0 | 8.0 | 0.00 | 0.00 | 0.00 | 49 | 1019.0 |
| 20260502181537 | 67 | 241 | 3.0 | 7.0 | 0.00 | 0.00 | 0.00 | 55 | 1019.0 |
| 20260502163117 | 58 | 90 | 0.0 | 3.0 | 0.00 | 0.00 | 0.00 | 74 | 1018.9 |
| 20260502161537 | 58 | 250 | 1.0 | 4.0 | 0.00 | 0.00 | 0.00 | 73 | 1019.0 |
| 20260502151531 | 55 | 254 | 2.0 | 5.0 | 0.00 | 0.00 | 0.00 | 76 | 1018.6 |
| 20260502150108 | 54 | 211 | 4.0 | 9.0 | 0.00 | 0.00 | 0.00 | 77 | 1018.6 |
| 20260502123037 | 53 | 202 | 3.0 | 4.0 | 0.00 | 0.00 | 0.00 | 76 | 1017.4 |
| 20260502121528 | 53 | 192 | 2.0 | 4.0 | 0.00 | 0.00 | 0.00 | 76 | 1017.4 |
| 20260502114651 | 55 | 282 | 2.0 | 6.0 | 0.00 | 0.00 | 0.00 | 72 | 1017.6 |
| 20260502111534 | 55 | 106 | 2.0 | 6.0 | 0.00 | 0.00 | 0.00 | 72 | 1017.5 |
| 20260502104535 | 55 | 90 | 5.0 | 9.0 | 0.00 | 0.00 | 0.00 | 71 | 1017.2 |
| 20260502100150 | 55 | 247 | 2.0 | 5.0 | 0.00 | 0.00 | 0.00 | 72 | 1017.7 |
| 20260502071536 | 55 | 101 | 2.0 | 4.0 | 0.00 | 0.00 | 0.00 | 65 | 1018.1 |
| 20260502070031 | 56 | 43 | 3.0 | 4.0 | 0.00 | 0.00 | 0.00 | 65 | 1018.1 |
| 20260502064537 | 56 | 43 | 4.0 | 5.0 | 0.00 | 0.00 | 0.00 | 65 | 1018.0 |
| 20260502063033 | 56 | 102 | 3.0 | 4.0 | 0.00 | 0.00 | 0.00 | 65 | 1018.1 |
| 20260502061533 | 56 | 89 | 3.0 | 4.0 | 0.00 | 0.00 | 0.00 | 64 | 1018.1 |
| 20260502060143 | 55 | 54 | 3.0 | 4.0 | 0.00 | 0.00 | 0.00 | 63 | 1017.8 |
| 20260502054534 | 55 | 65 | 1.0 | 3.0 | 0.00 | 0.00 | 0.00 | 59 | 1018.1 |
| 20260502053107 | 57 | 231 | 1.0 | 4.0 | 0.00 | 0.00 | 0.00 | 58 | 1018.0 |
| 20260502051606 | 58 | 56 | 2.0 | 5.0 | 0.00 | 0.00 | 0.00 | 55 | 1017.8 |
| 20260502050035 | 59 | 105 | 3.0 | 5.0 | 0.00 | 0.00 | 0.00 | 51 | 1017.8 |
| 20260502043035 | 62 | 12 | 2.0 | 4.0 | 0.00 | 0.00 | 0.00 | 46 | 1017.7 |
| 20260502041536 | 62 | 29 | 3.0 | 6.0 | 0.00 | 0.00 | 0.00 | 46 | 1017.6 |
| 20260502040141 | 62 | 14 | 3.0 | 6.0 | 0.00 | 0.00 | 0.00 | 45 | 1017.5 |
| 20260502034531 | 64 | 336 | 2.0 | 5.0 | 0.00 | 0.00 | 0.00 | 44 | 1017.4 |
| 20260502031534 | 64 | 12 | 3.0 | 5.0 | 0.00 | 0.00 | 0.00 | 44 | 1017.3 |
| 20260502030035 | 65 | 26 | 3.0 | 7.0 | 0.00 | 0.00 | 0.00 | 44 | 1017.0 |
| 20260502024538 | 67 | 43 | 3.0 | 6.0 | 0.00 | 0.00 | 0.00 | 42 | 1016.8 |
| 20260502021533 | 69 | 34 | 5.0 | 8.0 | 0.00 | 0.00 | 0.00 | 38 | 1016.6 |